Regional Weather Roundup
Issued by NWS

Home | Current Version | Previous Version | Text Only | Print | Product List | Glossary On
Versions: 1 2 3 4 5 6 7 8 9 10 11 12 13 14 15 16 17 18 19 20 21 22 23 24 25 26 27 28 29 30 31 32 33 34 35 36 37 38 39 40 41 42 43 44 45 46 47 48 49 50
000
ASUS43 KTOP 262208
RWRKS

WEATHER ROUNDUP FOR KANSAS
NATIONAL WEATHER SERVICE GOODLAND KS
400 PM CST SUN FEB 26 2017

NOTE:  "FAIR" INDICATES FEW OR NO CLOUDS BELOW 12,000 FEET WITH NO
SIGNIFICANT WEATHER AND/OR OBSTRUCTIONS TO VISIBILITY.

KSZ001>006-013>018-027>032-041>047-262300-
NORTHWEST KANSAS

CITY           SKY/WX    TMP DP  RH WIND       PRES   REMARKS
GOODLAND       SUNNY     44   5  20 S12       29.84S
HAYS           SUNNY     49   5  16 VRB5      29.90S
HILL CITY      SUNNY     49   6  17 NW9       29.90R
RUSSELL        SUNNY     52   5  15 NW6       29.88S
$$

KSZ061>065-074>080-084>089-262300-
SOUTHWEST KANSAS

CITY           SKY/WX    TMP DP  RH WIND       PRES   REMARKS
DODGE CITY     SUNNY     52   9  17 E9        29.87R
ELKHART          N/A     51  10  19 S8          N/A
GARDEN CITY    SUNNY     50   7  17 NE5       29.86R
LIBERAL        SUNNY     52  10  19 NW3       29.86R
PRATT          SUNNY     50  17  26 E8G17     29.88S
$$

KSZ066>073-081>083-090>101-262300-
SOUTHEAST KANSAS

CITY           SKY/WX    TMP DP  RH WIND       PRES   REMARKS
CHANUTE        MOSUNNY   51  26  37 S10       29.94S
COFFEYVILLE    MOSUNNY   51  32  48 E7        29.94S
HUTCHINSON     SUNNY     53  21  28 E6        29.89S
MEDICINE LODGE   N/A     53  20  27 E8        29.87S
NEWTON         SUNNY     51  24  34 VRB5      29.90S
PARSONS        MOSUNNY   50  29  44 SE9       29.95S
WICHITA INTL   MOSUNNY   52  25  35 CALM      29.89S
WICHITA JABRA  SUNNY     52  25  35 CALM      29.89S
WICHITA MCCONL SUNNY     52  25  35 SE6       29.88F
WINFIELD       SUNNY     54  28  36 N3        29.90S
$$

KSZ007>012-019>026-033>040-048>060-102>105-262300-
NORTHEAST KANSAS

CITY           SKY/WX    TMP DP  RH WIND       PRES   REMARKS
CONCORDIA      SUNNY     51   8  17 W8        29.89S
EMPORIA        SUNNY     52  25  35 W6        29.90S
LAWRENCE       SUNNY     53  25  33 SE8       29.93S
MANHATTAN      SUNNY     53  24  32 S7        29.91S
MARYSVILLE     MOSUNNY   52  18  25 W3        29.89S
OLATHE IND     PTSUNNY   50  31  48 SE10      29.94S
OLATHE EXE     PTSUNNY   48  33  56 SE9       29.94S
SALINA         SUNNY     54  16  22 N8        29.91S
TOPEKA BILLARD SUNNY     53  24  32 VRB3      29.92S
TOPEKA FORBES  SUNNY     54  24  31 SE7       29.92S
$$



USA.gov is the U.S. government's official web portal to all federal, state and local government web resources and services.